Date String (YYYY-MM-DD hh:mm:ss) UTC,Instrument flags,absolute air pressure of the measurement (hPa),sample flow rate (lpm),inlet stack bypass flow (lpm),air temperature of the measurement (°C),ambient temperature measured by the external sensor (°C),aerosol sample conditioner tube jacket temperature (°C),OPC LED temperature (°C),internal box temperature (°C),relative humidity of the measurement (%),span deviation,mass concentration of particles derived from Lorenz-Mie calculation of OPC scattering (μg/m³),mass concentration of particles derived from Lorenz-Mie calculation of OPC scattering (μg/m³),mass concentration of particles derived from Lorenz-Mie calculation of OPC scattering (μg/m³)
DateTimeUTC,F1_M11,P_M11,Q1_M11,Q2_M11,T1_M11,T2_M11,T3_M11,T4_M11,T5_M11,U1_M11,ZSPAN_M11,X2_M11,X0_M11,X1_M11
2023-07-04 15:00:00,SystemResetWarning,0832.7,5.00,000.00,029.6,028.4,000.0,038.1,031.3,28.7,0000.0,0004.90,0010.26,0004.34
2023-07-04 15:01:00,SystemResetWarning,0832.7,4.99,000.00,029.6,028.5,000.0,038.1,031.3,28.8,0000.0,0004.94,0010.80,0004.34
2023-07-04 15:02:00,SystemResetWarning,0832.7,4.99,000.00,029.7,028.6,000.0,038.1,031.3,27.7,0000.0,0004.94,0011.60,0004.32
2023-07-04 15:03:00,SystemResetWarning,0832.7,4.99,000.00,029.7,028.6,000.0,038.1,031.4,28.0,0000.0,0004.91,0011.57,0004.32
2023-07-04 15:04:00,SystemResetWarning,0832.7,5.00,000.00,029.7,027.5,000.0,038.1,031.3,28.3,0000.0,0004.85,0011.55,0004.30
2023-07-04 15:05:00,SystemResetWarning,0832.7,5.00,000.00,029.7,025.7,000.0,037.9,031.1,27.9,0000.0,0004.83,0011.36,0004.29
2023-07-04 15:06:00,SystemResetWarning,0832.7,5.00,000.00,029.6,025.3,000.0,037.9,030.9,28.2,0000.0,0004.83,0010.92,0004.29
2023-07-04 15:07:00,SystemResetWarning,0832.7,5.01,000.00,029.5,025.6,000.0,037.9,030.7,27.3,0000.0,0004.85,0010.45,0004.29
2023-07-04 15:08:00,SystemResetWarning,0832.7,5.01,000.00,029.4,026.0,000.0,037.9,030.7,27.8,0000.0,0004.85,0010.10,0004.29
2023-07-04 15:09:00,SystemResetWarning,0832.7,4.99,000.00,029.4,026.4,000.0,037.9,030.8,28.2,0000.0,0004.85,0010.58,0004.29
2023-07-04 15:10:00,SystemResetWarning,0832.7,5.00,000.00,029.4,026.8,000.0,038.0,030.8,27.3,0000.0,0004.88,0010.71,0004.28
2023-07-04 15:11:00,SystemResetWarning,0832.7,5.00,000.00,029.4,027.1,000.0,038.0,030.9,27.1,0000.0,0004.85,0010.70,0004.26
2023-07-04 15:12:00,SystemResetWarning,0832.7,4.99,000.00,029.4,027.4,000.0,038.0,031.0,27.5,0000.0,0004.78,0010.12,0004.24
2023-07-04 15:13:00,SystemResetWarning,0832.7,4.99,000.00,029.4,027.6,000.0,038.0,031.0,27.5,0000.0,0004.74,0009.19,0004.22
2023-07-04 15:14:00,SystemResetWarning,0832.8,4.99,000.00,029.4,027.8,000.0,038.0,031.0,27.6,0000.0,0004.75,0009.57,0004.21
2023-07-04 15:15:00,SystemResetWarning,0832.8,5.01,000.00,029.5,028.0,000.0,038.0,031.1,27.7,0000.0,0004.74,0009.45,0004.22
2023-07-04 15:16:00,SystemResetWarning,0832.7,5.01,000.00,029.5,028.1,000.0,038.0,031.1,27.5,0000.0,0004.73,0009.45,0004.21
2023-07-04 15:17:00,SystemResetWarning,0832.7,4.99,000.00,029.5,028.2,000.0,038.0,031.2,27.2,0000.0,0004.72,0009.53,0004.21
2023-07-04 15:18:00,SystemResetWarning,0832.7,5.00,000.00,029.6,028.4,000.0,038.1,031.2,26.9,0000.0,0004.67,0009.87,0004.20
2023-07-04 15:19:00,SystemResetWarning,0832.7,5.00,000.00,029.6,028.4,000.0,038.1,031.3,27.5,0000.0,0004.67,0009.86,0004.19
2023-07-04 15:20:00,SystemResetWarning,0832.9,5.00,000.00,029.6,028.2,000.0,038.1,031.3,28.1,0000.0,0004.63,0009.43,0004.17
2023-07-04 15:21:00,SystemResetWarning,0832.7,5.00,000.00,029.6,026.6,000.0,037.9,031.2,28.5,0000.0,0004.58,0009.27,0004.16
2023-07-04 15:22:00,SystemResetWarning,0832.7,5.01,000.00,029.5,025.4,000.0,037.8,030.9,28.3,0000.0,0004.58,0009.25,0004.15
2023-07-04 15:23:00,SystemResetWarning,0832.7,5.01,000.00,029.5,025.5,000.0,037.8,030.8,28.2,0000.0,0004.61,0009.55,0004.14
2023-07-04 15:24:00,SystemResetWarning,0832.8,5.01,000.00,029.4,025.8,000.0,037.8,030.7,28.6,0000.0,0004.65,0009.75,0004.16
2023-07-04 15:25:00,SystemResetWarning,0832.8,4.99,000.00,029.3,026.3,000.0,037.9,030.7,27.8,0000.0,0004.66,0009.41,0004.16
2023-07-04 15:26:00,SystemResetWarning,0832.8,5.00,000.00,029.3,026.7,000.0,037.9,030.8,28.0,0000.0,0004.68,0009.26,0004.17
2023-07-04 15:27:00,SystemResetWarning,0832.8,4.98,000.00,029.3,027.0,000.0,037.9,030.9,28.7,0000.0,0004.67,0009.14,0004.17
2023-07-04 15:28:00,SystemResetWarning,0832.8,4.99,000.00,029.4,027.3,000.0,037.9,030.9,28.5,0000.0,0004.65,0008.82,0004.17
2023-07-04 15:29:00,SystemResetWarning,0832.8,5.02,000.00,029.4,027.6,000.0,037.9,031.0,28.1,0000.0,0004.65,0008.44,0004.15
2023-07-04 15:30:00,SystemResetWarning,0833.0,5.00,000.00,029.4,027.8,000.0,037.9,031.0,27.7,0000.0,0004.61,0008.39,0004.14
2023-07-04 15:31:00,SystemResetWarning,0832.9,4.99,000.00,029.4,028.0,000.0,037.9,031.1,27.8,0000.0,0004.60,0008.31,0004.14
2023-07-04 15:32:00,SystemResetWarning,0833.0,5.00,000.00,029.5,028.1,000.0,038.0,031.1,27.6,0000.0,0004.62,0008.75,0004.15
2023-07-04 15:33:00,SystemResetWarning,0833.0,5.00,000.00,029.5,028.2,000.0,038.0,031.2,27.7,0000.0,0004.63,0009.19,0004.15
2023-07-04 15:34:00,SystemResetWarning,0833.0,5.00,000.00,029.5,028.3,000.0,038.0,031.2,28.2,0000.0,0004.58,0009.34,0004.15
2023-07-04 15:35:00,SystemResetWarning,0833.1,4.98,000.00,029.5,027.2,000.0,037.9,031.1,27.9,0000.0,0004.56,0010.06,0004.13
2023-07-04 15:36:00,SystemResetWarning,0833.1,5.00,000.00,029.5,025.6,000.0,037.8,030.8,27.6,0000.0,0004.57,0010.49,0004.13
2023-07-04 15:37:00,SystemResetWarning,0832.8,5.01,000.00,029.4,025.4,000.0,037.7,030.7,28.0,0000.0,0004.54,0010.85,0004.12
2023-07-04 15:38:00,SystemResetWarning,0833.1,5.01,000.00,029.3,025.7,000.0,037.7,030.6,28.2,0000.0,0004.53,0011.09,0004.12
2023-07-04 15:39:00,SystemResetWarning,0833.3,5.00,000.00,029.3,026.1,000.0,037.8,030.6,28.1,0000.0,0004.56,0011.14,0004.12
2023-07-04 15:40:00,SystemResetWarning,0833.3,5.00,000.00,029.3,026.5,000.0,037.8,030.7,28.1,0000.0,0004.59,0011.20,0004.14
2023-07-04 15:41:00,SystemResetWarning,0833.5,4.99,000.00,029.3,026.9,000.0,037.8,030.8,27.5,0000.0,0004.62,0011.62,0004.16
2023-07-04 15:42:00,SystemResetWarning,0833.2,4.98,000.00,029.3,027.2,000.0,037.8,030.8,28.3,0000.0,0004.65,0011.85,0004.16
2023-07-04 15:43:00,SystemResetWarning,0833.2,5.01,000.00,029.3,027.4,000.0,037.8,030.9,28.2,0000.0,0004.65,0011.56,0004.17
2023-07-04 15:44:00,SystemResetWarning,0833.4,5.01,000.00,029.3,027.7,000.0,037.8,031.0,27.8,0000.0,0004.66,0011.18,0004.17
2023-07-04 15:45:00,SystemResetWarning,0832.8,5.00,000.00,029.4,027.9,000.0,037.9,031.0,27.6,0000.0,0004.67,0011.09,0004.18
2023-07-04 15:46:00,SystemResetWarning,0833.0,5.00,000.00,029.4,028.0,000.0,037.9,031.1,27.7,0000.0,0004.67,0010.11,0004.19
2023-07-04 15:47:00,SystemResetWarning,0832.9,5.00,000.00,029.4,028.2,000.0,037.9,031.1,28.1,0000.0,0004.65,0009.99,0004.17
2023-07-04 15:48:00,SystemResetWarning,0832.8,5.00,000.00,029.5,028.2,000.0,037.9,031.2,27.9,0000.0,0004.62,0009.70,0004.17
2023-07-04 15:49:00,SystemResetWarning,0832.8,4.98,000.00,029.5,026.9,000.0,037.8,031.0,27.3,0000.0,0004.60,0010.04,0004.15
2023-07-04 15:50:00,SystemResetWarning,0832.7,5.01,000.00,029.4,025.4,000.0,037.7,030.7,27.1,0000.0,0004.59,0010.63,0004.13
2023-07-04 15:51:00,SystemResetWarning,0832.7,5.00,000.00,029.3,025.3,000.0,037.6,030.6,27.6,0000.0,0004.57,0011.23,0004.11
2023-07-04 15:52:00,SystemResetWarning,0832.7,5.01,000.00,029.2,025.6,000.0,037.7,030.5,27.8,0000.0,0004.54,0010.78,0004.10
2023-07-04 15:53:00,SystemResetWarning,0832.7,5.00,000.00,029.2,026.0,000.0,037.7,030.5,27.6,0000.0,0004.51,0011.64,0004.08
2023-07-04 15:54:00,SystemResetWarning,0832.7,5.00,000.00,029.2,026.4,000.0,037.7,030.6,27.7,0000.0,0004.49,0011.84,0004.05
2023-07-04 15:55:00,SystemResetWarning,0832.8,5.00,000.00,029.2,026.8,000.0,037.7,030.7,28.3,0000.0,0004.51,0011.86,0004.05
2023-07-04 15:56:00,SystemResetWarning,0832.8,5.00,000.00,029.2,027.1,000.0,037.7,030.8,29.2,0000.0,0004.54,0011.82,0004.03
2023-07-04 15:57:00,SystemResetWarning,0832.7,5.00,000.00,029.2,027.4,000.0,037.7,030.8,28.9,0000.0,0004.52,0011.75,0004.02
2023-07-04 15:58:00,SystemResetWarning,0832.7,5.00,000.00,029.3,027.7,000.0,037.8,030.9,28.5,0000.0,0004.53,0011.77,0004.00
2023-07-04 15:59:00,SystemResetWarning,0832.7,4.99,000.00,029.3,027.9,000.0,037.8,031.0,27.9,0000.0,0004.58,0011.71,0004.00
